| time (UTC) | temp F | wind direction | speed MPH | gust MPH | rain 1hr in | rain 24hr in | rain mn in | humidity % | barometer mb |
| 20260906062019 | 75 | 257 | 1.0 | 5.0 | 0.00 | 0.00 | 0.00 | 72 | 1010.9 |
| 20260906061518 | 75 | 252 | 4.0 | 5.0 | 0.00 | 0.00 | 0.00 | 72 | 1010.9 |
| 20260906061018 | 75 | 235 | 2.0 | 3.0 | 0.00 | 0.00 | 0.00 | 70 | 1010.9 |
| 20260906060519 | 76 | 256 | 2.0 | 3.0 | 0.00 | 0.00 | 0.00 | 67 | 1010.8 |
| 20260906060020 | 76 | 232 | 2.0 | 3.0 | 0.00 | 0.00 | 0.00 | 63 | 1010.7 |
| 20260906055518 | 76 | 263 | 2.0 | 3.0 | 0.00 | 0.00 | 0.00 | 62 | 1010.8 |
| 20260906055017 | 76 | 223 | 1.0 | 3.0 | 0.00 | 0.00 | 0.00 | 60 | 1010.8 |
| 20260906054519 | 76 | 275 | 1.0 | 3.0 | 0.00 | 0.00 | 0.00 | 58 | 1010.8 |
| 20260906054020 | 76 | 265 | 2.0 | 3.0 | 0.00 | 0.00 | 0.00 | 54 | 1010.8 |
| 20260906053518 | 77 | 267 | 1.0 | 3.0 | 0.00 | 0.00 | 0.00 | 52 | 1010.8 |
| 20260906053019 | 77 | 269 | 1.0 | 3.0 | 0.00 | 0.00 | 0.00 | 52 | 1010.9 |
| 20260906052520 | 77 | 249 | 0.0 | 0.0 | 0.00 | 0.00 | 0.00 | 51 | 1010.9 |
| 20260906052019 | 78 | 247 | 0.0 | 1.0 | 0.00 | 0.00 | 0.00 | 49 | 1010.9 |
| 20260906051518 | 78 | 272 | 0.0 | 2.0 | 0.00 | 0.00 | 0.00 | 48 | 1010.8 |
| 20260906051017 | 78 | 259 | 1.0 | 3.0 | 0.00 | 0.00 | 0.00 | 47 | 1011.0 |
| 20260906050518 | 78 | 246 | 1.0 | 5.0 | 0.00 | 0.00 | 0.00 | 47 | 1011.0 |
| 20260906050018 | 78 | 323 | 3.0 | 5.0 | 0.00 | 0.00 | 0.00 | 44 | 1010.9 |
| 20260906045518 | 78 | 338 | 1.0 | 5.0 | 0.00 | 0.00 | 0.00 | 44 | 1010.9 |
| 20260906045017 | 78 | 277 | 1.0 | 6.0 | 0.00 | 0.00 | 0.00 | 44 | 1010.9 |
| 20260906044517 | 78 | 13 | 1.0 | 6.0 | 0.00 | 0.00 | 0.00 | 44 | 1010.9 |
| 20260906044018 | 78 | 1 | 3.0 | 8.0 | 0.00 | 0.00 | 0.00 | 44 | 1010.9 |
| 20260906043737 | 78 | 13 | 3.0 | 8.0 | 0.00 | 0.00 | 0.00 | 44 | 1010.8 |
| 20260906043017 | 78 | 23 | 3.0 | 8.0 | 0.00 | 0.00 | 0.00 | 45 | 1010.8 |
| 20260906042516 | 78 | 54 | 2.0 | 7.0 | 0.00 | 0.00 | 0.00 | 44 | 1010.9 |
| 20260906042019 | 78 | 23 | 3.0 | 9.0 | 0.00 | 0.00 | 0.00 | 45 | 1010.8 |
| 20260906041518 | 78 | 7 | 3.0 | 9.0 | 0.00 | 0.00 | 0.00 | 44 | 1010.8 |
| 20260906041235 | 78 | 16 | 6.0 | 9.0 | 0.00 | 0.00 | 0.00 | 44 | 1010.8 |
| 20260906040517 | 78 | 17 | 3.0 | 9.0 | 0.00 | 0.00 | 0.00 | 45 | 1010.7 |
| 20260906040018 | 78 | 333 | 5.0 | 9.0 | 0.00 | 0.00 | 0.00 | 45 | 1010.7 |
| 20260906035518 | 78 | 351 | 3.0 | 10.0 | 0.00 | 0.00 | 0.00 | 44 | 1010.8 |
| 20260906035016 | 77 | 2 | 9.0 | 10.0 | 0.00 | 0.00 | 0.00 | 44 | 1010.7 |
| 20260906034017 | 77 | 347 | 6.0 | 12.0 | 0.00 | 0.00 | 0.00 | 46 | 1010.7 |
| 20260906033517 | 77 | 354 | 8.0 | 12.0 | 0.00 | 0.00 | 0.00 | 47 | 1010.6 |
| 20260906033017 | 77 | 353 | 9.0 | 13.0 | 0.00 | 0.00 | 0.00 | 48 | 1010.5 |
| 20260906032605 | 77 | 6 | 9.0 | 16.0 | 0.00 | 0.00 | 0.00 | 50 | 1010.5 |
| 20260906032310 | 77 | 350 | 10.0 | 16.0 | 0.00 | 0.00 | 0.00 | 52 | 1010.4 |
| 20260906031537 | 77 | 353 | 15.0 | 16.0 | 0.00 | 0.00 | 0.00 | 49 | 1010.4 |
| 20260906030536 | 78 | 351 | 10.0 | 16.0 | 0.00 | 0.00 | 0.00 | 45 | 1010.4 |
| 20260906030046 | 78 | 20 | 13.0 | 16.0 | 0.00 | 0.00 | 0.00 | 42 | 1010.3 |
| 20260906025533 | 78 | 359 | 13.0 | 14.0 | 0.00 | 0.00 | 0.00 | 41 | 1010.3 |
| 20260906025313 | 78 | 343 | 9.0 | 12.0 | 0.00 | 0.00 | 0.00 | 43 | 1010.3 |
| 20260906024511 | 78 | 342 | 8.0 | 10.0 | 0.00 | 0.00 | 0.00 | 45 | 1010.2 |
| 20260906024014 | 78 | 353 | 8.0 | 10.0 | 0.00 | 0.00 | 0.00 | 44 | 1010.1 |
| 20260906023516 | 78 | 7 | 5.0 | 12.0 | 0.00 | 0.00 | 0.00 | 43 | 1010.2 |
| 20260906023015 | 78 | 15 | 5.0 | 12.0 | 0.00 | 0.00 | 0.00 | 43 | 1010.2 |
| 20260906022515 | 79 | 6 | 10.0 | 12.0 | 0.00 | 0.00 | 0.00 | 43 | 1010.2 |
| 20260906022014 | 79 | 351 | 8.0 | 12.0 | 0.00 | 0.00 | 0.00 | 46 | 1010.1 |
| 20260906021515 | 79 | 312 | 6.0 | 9.0 | 0.00 | 0.00 | 0.00 | 47 | 1010.2 |
| 20260906021014 | 79 | 304 | 7.0 | 15.0 | 0.00 | 0.00 | 0.00 | 46 | 1010.2 |
| 20260906020513 | 79 | 344 | 6.0 | 15.0 | 0.00 | 0.00 | 0.00 | 45 | 1010.2 |
| 20260906020013 | 78 | 21 | 12.0 | 14.0 | 0.00 | 0.00 | 0.00 | 44 | 1010.1 |
| 20260906015514 | 78 | 351 | 6.0 | 10.0 | 0.00 | 0.00 | 0.00 | 45 | 1010.1 |
| 20260906015014 | 78 | 334 | 7.0 | 10.0 | 0.00 | 0.00 | 0.00 | 45 | 1010.1 |
| 20260906014540 | 78 | 327 | 6.0 | 7.0 | 0.00 | 0.00 | 0.00 | 53 | 1010.1 |
| 20260906014040 | 78 | 328 | 5.0 | 7.0 | 0.00 | 0.00 | 0.00 | 66 | 1010.2 |
| 20260906013754 | 78 | 302 | 4.0 | 6.0 | 0.00 | 0.00 | 0.00 | 66 | 1010.2 |
| 20260906013253 | 79 | 291 | 4.0 | 6.0 | 0.00 | 0.00 | 0.00 | 67 | 1010.2 |
| 20260906012817 | 79 | 291 | 4.0 | 6.0 | 0.00 | 0.00 | 0.00 | 67 | 1010.2 |
| 20260906012030 | 80 | 303 | 4.0 | 7.0 | 0.00 | 0.00 | 0.00 | 64 | 1010.4 |
| 20260906011536 | 80 | 291 | 3.0 | 7.0 | 0.00 | 0.00 | 0.00 | 68 | 1010.3 |
| 20260906011052 | 80 | 296 | 4.0 | 7.0 | 0.00 | 0.00 | 0.00 | 67 | 1010.3 |
| 20260906010533 | 81 | 289 | 5.0 | 7.0 | 0.00 | 0.00 | 0.00 | 66 | 1010.3 |
| 20260906010031 | 81 | 268 | 2.0 | 6.0 | 0.00 | 0.00 | 0.00 | 63 | 1010.3 |
| 20260906005524 | 81 | 284 | 2.0 | 5.0 | 0.00 | 0.00 | 0.00 | 62 | 1010.3 |
| 20260906005028 | 82 | 253 | 0.0 | 5.0 | 0.00 | 0.00 | 0.00 | 63 | 1010.2 |
| 20260906004534 | 82 | 256 | 2.0 | 6.0 | 0.00 | 0.00 | 0.00 | 61 | 1010.1 |
| 20260906004039 | 82 | 296 | 2.0 | 6.0 | 0.00 | 0.00 | 0.00 | 59 | 1010.2 |
| 20260906003542 | 82 | 317 | 2.0 | 5.0 | 0.00 | 0.00 | 0.00 | 58 | 1010.2 |
| 20260906003045 | 82 | 332 | 3.0 | 7.0 | 0.00 | 0.00 | 0.00 | 57 | 1010.2 |
| 20260906002524 | 82 | 251 | 3.0 | 7.0 | 0.00 | 0.00 | 0.00 | 56 | 1010.2 |
| 20260906002036 | 82 | 266 | 3.0 | 8.0 | 0.00 | 0.00 | 0.00 | 57 | 1010.2 |
| 20260906001539 | 81 | 274 | 3.0 | 8.0 | 0.00 | 0.00 | 0.00 | 58 | 1010.2 |
| 20260906001053 | 81 | 283 | 2.0 | 8.0 | 0.00 | 0.00 | 0.00 | 57 | 1010.3 |
| 20260906000534 | 82 | 301 | 4.0 | 8.0 | 0.00 | 0.00 | 0.00 | 56 | 1010.3 |
| 20260906000037 | 82 | 314 | 2.0 | 10.0 | 0.00 | 0.00 | 0.00 | 53 | 1010.2 |
| 20260905235544 | 82 | 354 | 1.0 | 10.0 | 0.00 | 0.00 | 0.00 | 54 | 1010.3 |
| 20260905235101 | 82 | 231 | 2.0 | 8.0 | 0.00 | 0.00 | 0.00 | 52 | 1010.3 |
| 20260905234248 | 83 | 291 | 4.0 | 6.0 | 0.00 | 0.00 | 0.00 | 52 | 1010.2 |
| 20260905233539 | 83 | 262 | 3.0 | 6.0 | 0.00 | 0.00 | 0.00 | 48 | 1010.3 |
| 20260905233042 | 83 | 296 | 3.0 | 8.0 | 0.00 | 0.00 | 0.00 | 49 | 1010.3 |
| 20260905232558 | 84 | 306 | 3.0 | 8.0 | 0.00 | 0.00 | 0.00 | 49 | 1010.4 |
| 20260905232005 | 84 | 258 | 4.0 | 10.0 | 0.00 | 0.00 | 0.00 | 48 | 1010.3 |
| 20260905231546 | 84 | 256 | 5.0 | 10.0 | 0.00 | 0.00 | 0.00 | 51 | 1010.3 |
| 20260905231048 | 83 | 269 | 5.0 | 9.0 | 0.00 | 0.00 | 0.00 | 51 | 1010.2 |
| 20260905230542 | 83 | 269 | 3.0 | 9.0 | 0.00 | 0.00 | 0.00 | 50 | 1010.2 |
| 20260905230041 | 83 | 281 | 3.0 | 7.0 | 0.00 | 0.00 | 0.00 | 46 | 1010.2 |
| 20260905225537 | 83 | 271 | 1.0 | 7.0 | 0.00 | 0.00 | 0.00 | 49 | 1010.2 |
| 20260905225307 | 83 | 270 | 2.0 | 7.0 | 0.00 | 0.00 | 0.00 | 49 | 1010.3 |
| 20260905224600 | 83 | 237 | 2.0 | 7.0 | 0.00 | 0.00 | 0.00 | 54 | 1010.4 |
| 20260905224052 | 83 | 258 | 1.0 | 9.0 | 0.00 | 0.00 | 0.00 | 54 | 1010.3 |
| 20260905223747 | 84 | 255 | 3.0 | 9.0 | 0.00 | 0.00 | 0.00 | 50 | 1010.4 |
| 20260905223052 | 84 | 352 | 2.0 | 7.0 | 0.00 | 0.00 | 0.00 | 53 | 1010.5 |
| 20260905222813 | 84 | 281 | 4.0 | 9.0 | 0.00 | 0.00 | 0.00 | 47 | 1010.5 |
| 20260905222039 | 84 | 285 | 4.0 | 9.0 | 0.00 | 0.00 | 0.00 | 46 | 1010.4 |
| 20260905221811 | 84 | 265 | 4.0 | 8.0 | 0.00 | 0.00 | 0.00 | 41 | 1010.5 |
| 20260905221006 | 84 | 297 | 1.0 | 8.0 | 0.00 | 0.00 | 0.00 | 45 | 1010.5 |
| 20260905220532 | 84 | 270 | 5.0 | 8.0 | 0.00 | 0.00 | 0.00 | 49 | 1010.7 |
| 20260905220033 | 84 | 211 | 3.0 | 8.0 | 0.00 | 0.00 | 0.00 | 46 | 1010.6 |
| 20260905215540 | 84 | 229 | 2.0 | 8.0 | 0.00 | 0.00 | 0.00 | 49 | 1010.8 |
| 20260905215310 | 84 | 258 | 0.0 | 8.0 | 0.00 | 0.00 | 0.00 | 48 | 1010.7 |
| 20260905214803 | 84 | 226 | 4.0 | 9.0 | 0.00 | 0.00 | 0.00 | 43 | 1010.8 |
| 20260905214048 | 84 | 268 | 3.0 | 9.0 | 0.00 | 0.00 | 0.00 | 46 | 1010.9 |
| 20260905213551 | 84 | 276 | 3.0 | 8.0 | 0.00 | 0.00 | 0.00 | 44 | 1010.9 |
| 20260905213044 | 84 | 259 | 3.0 | 8.0 | 0.00 | 0.00 | 0.00 | 45 | 1011.0 |
| 20260905212524 | 83 | 282 | 3.0 | 8.0 | 0.00 | 0.00 | 0.00 | 48 | 1011.1 |
| 20260905212314 | 83 | 252 | 4.0 | 9.0 | 0.00 | 0.00 | 0.00 | 49 | 1011.0 |
| 20260905211808 | 83 | 251 | 3.0 | 9.0 | 0.00 | 0.00 | 0.00 | 50 | 1011.1 |
| 20260905211058 | 83 | 330 | 3.0 | 8.0 | 0.00 | 0.00 | 0.00 | 48 | 1011.1 |
| 20260905210532 | 83 | 306 | 4.0 | 9.0 | 0.00 | 0.00 | 0.00 | 48 | 1011.1 |
| 20260905210028 | 84 | 273 | 4.0 | 9.0 | 0.00 | 0.00 | 0.00 | 48 | 1011.2 |
| 20260905205814 | 84 | 335 | 3.0 | 9.0 | 0.00 | 0.00 | 0.00 | 50 | 1011.1 |
| 20260905205045 | 85 | 330 | 3.0 | 9.0 | 0.00 | 0.00 | 0.00 | 51 | 1011.2 |
| 20260905204616 | 85 | 242 | 2.0 | 13.0 | 0.00 | 0.00 | 0.00 | 52 | 1011.1 |
| 20260905204052 | 85 | 328 | 5.0 | 13.0 | 0.00 | 0.00 | 0.00 | 53 | 1011.2 |
| 20260905203554 | 85 | 56 | 3.0 | 12.0 | 0.00 | 0.00 | 0.00 | 49 | 1011.2 |
| 20260905203110 | 85 | 259 | 2.0 | 12.0 | 0.00 | 0.00 | 0.00 | 46 | 1011.3 |
| 20260905202548 | 85 | 263 | 3.0 | 8.0 | 0.00 | 0.00 | 0.00 | 45 | 1011.3 |
| 20260905202056 | 85 | 293 | 3.0 | 8.0 | 0.00 | 0.00 | 0.00 | 48 | 1011.4 |
| 20260905201546 | 85 | 283 | 3.0 | 7.0 | 0.00 | 0.00 | 0.00 | 46 | 1011.4 |
| 20260905201329 | 85 | 274 | 3.0 | 8.0 | 0.00 | 0.00 | 0.00 | 47 | 1011.4 |
| 20260905200550 | 85 | 318 | 3.0 | 8.0 | 0.00 | 0.00 | 0.00 | 49 | 1011.5 |
| 20260905200110 | 85 | 351 | 3.0 | 7.0 | 0.00 | 0.00 | 0.00 | 48 | 1011.4 |
| 20260905195541 | 85 | 302 | 2.0 | 7.0 | 0.00 | 0.00 | 0.00 | 47 | 1011.5 |
| 20260905195045 | 85 | 268 | 2.0 | 7.0 | 0.00 | 0.00 | 0.00 | 47 | 1011.5 |
| 20260905194602 | 85 | 319 | 2.0 | 7.0 | 0.00 | 0.00 | 0.00 | 44 | 1011.5 |
| 20260905194313 | 84 | 247 | 2.0 | 8.0 | 0.00 | 0.00 | 0.00 | 46 | 1011.6 |
| 20260905193600 | 84 | 286 | 3.0 | 8.0 | 0.00 | 0.00 | 0.00 | 46 | 1011.7 |
| 20260905193052 | 84 | 287 | 2.0 | 7.0 | 0.00 | 0.00 | 0.00 | 47 | 1011.7 |
| 20260905192555 | 83 | 339 | 3.0 | 7.0 | 0.00 | 0.00 | 0.00 | 47 | 1011.8 |
| 20260905192052 | 83 | 350 | 1.0 | 7.0 | 0.00 | 0.00 | 0.00 | 48 | 1011.9 |
| 20260905191553 | 83 | 292 | 2.0 | 7.0 | 0.00 | 0.00 | 0.00 | 49 | 1011.9 |
| 20260905191048 | 83 | 280 | 2.0 | 10.0 | 0.00 | 0.00 | 0.00 | 49 | 1011.9 |
| 20260905190544 | 83 | 347 | 5.0 | 10.0 | 0.00 | 0.00 | 0.00 | 52 | 1011.9 |
| 20260905190043 | 83 | 284 | 2.0 | 8.0 | 0.00 | 0.00 | 0.00 | 52 | 1012.0 |
| 20260905185534 | 83 | 285 | 4.0 | 8.0 | 0.00 | 0.00 | 0.00 | 50 | 1012.2 |
| 20260905185051 | 83 | 291 | 4.0 | 7.0 | 0.00 | 0.00 | 0.00 | 51 | 1012.3 |
| 20260905184540 | 83 | 262 | 3.0 | 7.0 | 0.00 | 0.00 | 0.00 | 49 | 1012.3 |
| 20260905184312 | 83 | 284 | 4.0 | 7.0 | 0.00 | 0.00 | 0.00 | 49 | 1012.4 |
| 20260905183047 | 83 | 306 | 2.0 | 7.0 | 0.00 | 0.00 | 0.00 | 49 | 1012.3 |
| 20260905182544 | 83 | 294 | 4.0 | 7.0 | 0.00 | 0.00 | 0.00 | 51 | 1012.4 |
| 20260905182246 | 82 | 306 | 4.0 | 9.0 | 0.00 | 0.00 | 0.00 | 53 | 1012.4 |
| 20260905181534 | 82 | 268 | 2.0 | 9.0 | 0.00 | 0.00 | 0.00 | 54 | 1012.5 |
| 20260905181301 | 81 | 307 | 2.0 | 6.0 | 0.00 | 0.00 | 0.00 | 54 | 1012.5 |
| 20260905180530 | 81 | 350 | 4.0 | 6.0 | 0.00 | 0.00 | 0.00 | 53 | 1012.5 |
| 20260905180018 | 80 | 302 | 2.0 | 6.0 | 0.00 | 0.00 | 0.00 | 54 | 1012.5 |
| 20260905175530 | 80 | 247 | 2.0 | 5.0 | 0.00 | 0.00 | 0.00 | 55 | 1012.5 |
| 20260905175022 | 79 | 237 | 0.0 | 5.0 | 0.00 | 0.00 | 0.00 | 57 | 1012.5 |
| 20260905174504 | 79 | 271 | 2.0 | 5.0 | 0.00 | 0.00 | 0.00 | 59 | 1012.4 |
| 20260905174004 | 79 | 337 | 2.0 | 5.0 | 0.00 | 0.00 | 0.00 | 60 | 1012.4 |
| 20260905173504 | 78 | 296 | 2.0 | 5.0 | 0.00 | 0.00 | 0.00 | 59 | 1012.4 |
| 20260905173002 | 78 | 286 | 1.0 | 5.0 | 0.00 | 0.00 | 0.00 | 62 | 1012.4 |
| 20260905172502 | 78 | 286 | 2.0 | 5.0 | 0.00 | 0.00 | 0.00 | 60 | 1012.3 |
| 20260905172225 | 77 | 265 | 4.0 | 5.0 | 0.00 | 0.00 | 0.00 | 61 | 1012.3 |
| 20260905171502 | 77 | 249 | 1.0 | 6.0 | 0.00 | 0.00 | 0.00 | 62 | 1012.2 |
| 20260905171002 | 77 | 343 | 3.0 | 6.0 | 0.00 | 0.00 | 0.00 | 62 | 1012.2 |
| 20260905170731 | 77 | 277 | 1.0 | 6.0 | 0.00 | 0.00 | 0.00 | 63 | 1012.3 |
| 20260905170005 | 77 | 322 | 3.0 | 6.0 | 0.00 | 0.00 | 0.00 | 62 | 1012.1 |
| 20260905165502 | 76 | 318 | 0.0 | 3.0 | 0.00 | 0.00 | 0.00 | 62 | 1012.2 |
| 20260905165002 | 76 | 277 | 2.0 | 3.0 | 0.00 | 0.00 | 0.00 | 63 | 1012.2 |
| 20260905164502 | 75 | 282 | 1.0 | 3.0 | 0.00 | 0.00 | 0.00 | 64 | 1012.3 |
| 20260905164002 | 75 | 276 | 0.0 | 5.0 | 0.00 | 0.00 | 0.00 | 65 | 1012.2 |
| 20260905163504 | 74 | 239 | 2.0 | 5.0 | 0.00 | 0.00 | 0.00 | 66 | 1012.2 |
| 20260905163001 | 74 | 298 | 1.0 | 5.0 | 0.00 | 0.00 | 0.00 | 67 | 1012.2 |
| 20260905162002 | 73 | 321 | 3.0 | 6.0 | 0.00 | 0.00 | 0.00 | 68 | 1012.2 |
| 20260905161502 | 73 | 269 | 1.0 | 5.0 | 0.00 | 0.00 | 0.00 | 68 | 1012.1 |
| 20260905161000 | 73 | 314 | 3.0 | 5.0 | 0.00 | 0.00 | 0.00 | 68 | 1012.2 |
| 20260905160722 | 72 | 277 | 1.0 | 5.0 | 0.00 | 0.00 | 0.00 | 67 | 1012.1 |
| 20260905160002 | 72 | 324 | 3.0 | 3.0 | 0.00 | 0.00 | 0.00 | 69 | 1012.1 |
| 20260905155722 | 71 | 310 | 0.0 | 5.0 | 0.00 | 0.00 | 0.00 | 70 | 1012.2 |
| 20260905155001 | 71 | 340 | 2.0 | 5.0 | 0.00 | 0.00 | 0.00 | 72 | 1012.1 |
| 20260905154500 | 70 | 320 | 0.0 | 3.0 | 0.00 | 0.00 | 0.00 | 71 | 1012.2 |
| 20260905154004 | 70 | 273 | 0.0 | 3.0 | 0.00 | 0.00 | 0.00 | 70 | 1012.3 |
| 20260905153501 | 69 | 301 | 1.0 | 3.0 | 0.00 | 0.00 | 0.00 | 70 | 1012.2 |
| 20260905152959 | 68 | 271 | 0.0 | 3.0 | 0.00 | 0.00 | 0.00 | 72 | 1012.2 |
| 20260905152459 | 68 | 340 | 1.0 | 3.0 | 0.00 | 0.00 | 0.00 | 75 | 1012.2 |
| 20260905152000 | 68 | 357 | 2.0 | 3.0 | 0.00 | 0.00 | 0.00 | 77 | 1012.2 |
| 20260905151500 | 67 | 331 | 1.0 | 3.0 | 0.00 | 0.00 | 0.00 | 78 | 1012.1 |
| 20260905150958 | 67 | 328 | 1.0 | 3.0 | 0.00 | 0.00 | 0.00 | 78 | 1012.1 |
| 20260905150458 | 66 | 271 | 0.0 | 3.0 | 0.00 | 0.00 | 0.00 | 77 | 1012.1 |
| 20260905150000 | 66 | 194 | 1.0 | 3.0 | 0.00 | 0.00 | 0.00 | 76 | 1012.1 |
| 20260905145459 | 66 | 217 | 0.0 | 3.0 | 0.00 | 0.00 | 0.00 | 81 | 1012.0 |
| 20260905144958 | 66 | 305 | 0.0 | 5.0 | 0.00 | 0.00 | 0.00 | 82 | 1011.8 |
| 20260905144458 | 66 | 17 | 3.0 | 5.0 | 0.00 | 0.00 | 0.00 | 82 | 1011.8 |
| 20260905143959 | 66 | 348 | 2.0 | 5.0 | 0.00 | 0.00 | 0.00 | 82 | 1011.7 |
| 20260905143459 | 65 | 320 | 2.0 | 5.0 | 0.00 | 0.00 | 0.00 | 82 | 1011.7 |
| 20260905143220 | 65 | 349 | 1.0 | 5.0 | 0.00 | 0.00 | 0.00 | 81 | 1011.5 |
| 20260905142457 | 65 | 359 | 2.0 | 5.0 | 0.00 | 0.00 | 0.00 | 82 | 1011.5 |
| 20260905141956 | 64 | 325 | 0.0 | 6.0 | 0.00 | 0.00 | 0.00 | 83 | 1011.6 |
| 20260905141457 | 64 | 328 | 1.0 | 6.0 | 0.00 | 0.00 | 0.00 | 84 | 1011.6 |
| 20260905140957 | 64 | 37 | 2.0 | 6.0 | 0.00 | 0.00 | 0.00 | 85 | 1011.6 |
| 20260905140456 | 64 | 36 | 2.0 | 6.0 | 0.00 | 0.00 | 0.00 | 86 | 1011.5 |
| 20260905135957 | 64 | 37 | 5.0 | 6.0 | 0.00 | 0.00 | 0.00 | 87 | 1011.5 |
| 20260905135458 | 63 | 323 | 1.0 | 2.0 | 0.00 | 0.00 | 0.00 | 90 | 1011.5 |
| 20260905134957 | 63 | 321 | 0.0 | 2.0 | 0.00 | 0.00 | 0.00 | 89 | 1011.5 |
| 20260905134219 | 63 | 305 | 0.0 | 6.0 | 0.00 | 0.00 | 0.00 | 88 | 1011.3 |
| 20260905133721 | 63 | 43 | 4.0 | 6.0 | 0.00 | 0.00 | 0.00 | 88 | 1011.3 |
| 20260905132957 | 63 | 348 | 1.0 | 6.0 | 0.00 | 0.00 | 0.00 | 89 | 1011.3 |
| 20260905132455 | 63 | 36 | 3.0 | 5.0 | 0.00 | 0.00 | 0.00 | 90 | 1011.2 |
| 20260905131955 | 63 | 20 | 1.0 | 3.0 | 0.00 | 0.00 | 0.00 | 90 | 1011.1 |
| 20260905131457 | 63 | 322 | 2.0 | 5.0 | 0.00 | 0.00 | 0.00 | 89 | 1011.1 |
| 20260905130956 | 63 | 300 | 1.0 | 6.0 | 0.00 | 0.00 | 0.00 | 89 | 1011.2 |
| 20260905130455 | 63 | 27 | 3.0 | 6.0 | 0.00 | 0.00 | 0.00 | 89 | 1011.1 |
| 20260905125954 | 63 | 223 | 1.0 | 5.0 | 0.00 | 0.00 | 0.00 | 90 | 1011.2 |
| 20260905125456 | 63 | 348 | 3.0 | 5.0 | 0.00 | 0.00 | 0.00 | 90 | 1011.0 |
| 20260905124956 | 63 | 25 | 2.0 | 5.0 | 0.00 | 0.00 | 0.00 | 90 | 1011.1 |
| 20260905124455 | 63 | 50 | 0.0 | 5.0 | 0.00 | 0.00 | 0.00 | 91 | 1011.0 |
| 20260905123955 | 63 | 46 | 3.0 | 6.0 | 0.00 | 0.00 | 0.00 | 90 | 1010.9 |
| 20260905123456 | 63 | 9 | 2.0 | 6.0 | 0.00 | 0.00 | 0.00 | 90 | 1010.8 |
| 20260905122956 | 63 | 29 | 3.0 | 6.0 | 0.00 | 0.00 | 0.00 | 90 | 1010.8 |
| 20260905122455 | 63 | 39 | 5.0 | 6.0 | 0.00 | 0.00 | 0.00 | 90 | 1010.8 |
| 20260905121955 | 63 | 32 | 4.0 | 6.0 | 0.00 | 0.00 | 0.00 | 90 | 1010.7 |
| 20260905121455 | 63 | 356 | 4.0 | 6.0 | 0.00 | 0.00 | 0.00 | 90 | 1010.8 |
| 20260905120956 | 63 | 359 | 2.0 | 6.0 | 0.00 | 0.00 | 0.00 | 91 | 1010.9 |
| 20260905120455 | 63 | 357 | 2.0 | 5.0 | 0.00 | 0.00 | 0.00 | 90 | 1010.9 |
| 20260905115454 | 63 | 359 | 1.0 | 3.0 | 0.00 | 0.00 | 0.00 | 91 | 1010.9 |
| 20260905114955 | 63 | 9 | 1.0 | 3.0 | 0.00 | 0.00 | 0.00 | 91 | 1010.9 |
| 20260905113954 | 63 | 323 | 0.0 | 3.0 | 0.00 | 0.00 | 0.00 | 90 | 1010.9 |
| 20260905113453 | 63 | 11 | 2.0 | 3.0 | 0.00 | 0.00 | 0.00 | 90 | 1011.0 |
| 20260905112954 | 63 | 291 | 0.0 | 2.0 | 0.00 | 0.00 | 0.00 | 90 | 1011.0 |
| 20260905112720 | 63 | 346 | 2.0 | 3.0 | 0.00 | 0.00 | 0.00 | 90 | 1011.1 |
| 20260905111953 | 63 | 352 | 1.0 | 3.0 | 0.00 | 0.00 | 0.00 | 90 | 1011.0 |
| 20260905111453 | 63 | 298 | 2.0 | 3.0 | 0.00 | 0.00 | 0.00 | 89 | 1011.1 |
| 20260905110954 | 63 | 350 | 1.0 | 3.0 | 0.00 | 0.00 | 0.00 | 89 | 1011.1 |
| 20260905110454 | 63 | 290 | 0.0 | 3.0 | 0.00 | 0.00 | 0.00 | 89 | 1011.1 |
| 20260905105953 | 63 | 348 | 1.0 | 3.0 | 0.00 | 0.00 | 0.00 | 89 | 1011.1 |
| 20260905105453 | 63 | 16 | 1.0 | 5.0 | 0.00 | 0.00 | 0.00 | 90 | 1011.2 |
| 20260905104954 | 63 | 23 | 1.0 | 5.0 | 0.00 | 0.00 | 0.00 | 90 | 1011.2 |
| 20260905104452 | 63 | 355 | 1.0 | 5.0 | 0.00 | 0.00 | 0.00 | 90 | 1011.2 |
| 20260905103952 | 63 | 5 | 1.0 | 5.0 | 0.00 | 0.00 | 0.00 | 90 | 1011.2 |
| 20260905103452 | 63 | 314 | 0.0 | 3.0 | 0.00 | 0.00 | 0.00 | 90 | 1011.2 |
| 20260905103212 | 63 | 345 | 1.0 | 3.0 | 0.00 | 0.00 | 0.00 | 89 | 1011.2 |
| 20260905102452 | 63 | 349 | 1.0 | 2.0 | 0.00 | 0.00 | 0.00 | 89 | 1011.2 |
| 20260905102214 | 64 | 314 | 0.0 | 2.0 | 0.00 | 0.00 | 0.00 | 89 | 1011.3 |
| 20260905101453 | 64 | 347 | 1.0 | 1.0 | 0.00 | 0.00 | 0.00 | 89 | 1011.2 |
| 20260905100953 | 64 | 283 | 0.0 | 0.0 | 0.00 | 0.00 | 0.00 | 89 | 1011.3 |
| 20260905100450 | 64 | 320 | 0.0 | 0.0 | 0.00 | 0.00 | 0.00 | 88 | 1011.2 |
| 20260905100039 | 64 | 296 | 0.0 | 3.0 | 0.00 | 0.00 | 0.00 | 88 | 1011.3 |
| 20260905095539 | 64 | 302 | 1.0 | 2.0 | 0.00 | 0.00 | 0.00 | 88 | 1011.3 |
| 20260905095038 | 64 | 300 | 0.0 | 0.0 | 0.00 | 0.00 | 0.00 | 88 | 1011.4 |
| 20260905094540 | 64 | 286 | 0.0 | 0.0 | 0.00 | 0.00 | 0.00 | 88 | 1011.3 |
| 20260905094039 | 64 | 305 | 0.0 | 0.0 | 0.00 | 0.00 | 0.00 | 88 | 1011.3 |
| 20260905093538 | 64 | 305 | 0.0 | 0.0 | 0.00 | 0.00 | 0.00 | 88 | 1011.4 |
| 20260905093038 | 64 | 300 | 0.0 | 5.0 | 0.00 | 0.00 | 0.00 | 88 | 1011.5 |
| 20260905092539 | 64 | 332 | 0.0 | 5.0 | 0.00 | 0.00 | 0.00 | 88 | 1011.4 |
| 20260905092039 | 64 | 342 | 4.0 | 5.0 | 0.00 | 0.00 | 0.00 | 88 | 1011.4 |
| 20260905091538 | 64 | 277 | 0.0 | 0.0 | 0.00 | 0.00 | 0.00 | 88 | 1011.5 |
| 20260905091038 | 64 | 275 | 0.0 | 0.0 | 0.00 | 0.00 | 0.00 | 88 | 1011.5 |
| 20260905090757 | 65 | 282 | 0.0 | 2.0 | 0.00 | 0.00 | 0.00 | 89 | 1011.3 |
| 20260905090039 | 65 | 293 | 0.0 | 2.0 | 0.00 | 0.00 | 0.00 | 89 | 1011.5 |
| 20260905085538 | 65 | 273 | 1.0 | 1.0 | 0.00 | 0.00 | 0.00 | 88 | 1011.5 |
| 20260905085038 | 65 | 272 | 0.0 | 2.0 | 0.00 | 0.00 | 0.00 | 88 | 1011.5 |
| 20260905084539 | 65 | 302 | 2.0 | 2.0 | 0.00 | 0.00 | 0.00 | 88 | 1011.6 |
| 20260905084038 | 65 | 287 | 0.0 | 3.0 | 0.00 | 0.00 | 0.00 | 88 | 1011.7 |
| 20260905083537 | 65 | 339 | 0.0 | 3.0 | 0.00 | 0.00 | 0.00 | 88 | 1011.6 |
| 20260905083037 | 65 | 304 | 0.0 | 2.0 | 0.00 | 0.00 | 0.00 | 88 | 1011.6 |
| 20260905082804 | 65 | 297 | 0.0 | 2.0 | 0.00 | 0.00 | 0.00 | 87 | 1011.8 |
| 20260905082038 | 65 | 310 | 0.0 | 5.0 | 0.00 | 0.00 | 0.00 | 87 | 1011.9 |
| 20260905081537 | 65 | 266 | 0.0 | 5.0 | 0.00 | 0.00 | 0.00 | 87 | 1011.9 |
| 20260905081037 | 65 | 2 | 3.0 | 5.0 | 0.00 | 0.00 | 0.00 | 88 | 1012.0 |
| 20260905080756 | 65 | 267 | 0.0 | 6.0 | 0.00 | 0.00 | 0.00 | 88 | 1012.0 |
| 20260905080038 | 65 | 7 | 2.0 | 6.0 | 0.00 | 0.00 | 0.00 | 87 | 1011.9 |
| 20260905075536 | 66 | 15 | 2.0 | 5.0 | 0.00 | 0.00 | 0.00 | 87 | 1012.0 |
| 20260905075036 | 66 | 291 | 1.0 | 3.0 | 0.00 | 0.00 | 0.00 | 87 | 1012.0 |
| 20260905074537 | 66 | 314 | 0.0 | 5.0 | 0.00 | 0.00 | 0.00 | 87 | 1012.0 |
| 20260905074037 | 66 | 293 | 0.0 | 5.0 | 0.00 | 0.00 | 0.00 | 86 | 1012.1 |
| 20260905073536 | 66 | 28 | 3.0 | 5.0 | 0.00 | 0.00 | 0.00 | 86 | 1012.1 |
| 20260905073035 | 66 | 66 | 2.0 | 5.0 | 0.00 | 0.00 | 0.00 | 86 | 1012.2 |
| 20260905072538 | 66 | 18 | 2.0 | 6.0 | 0.00 | 0.00 | 0.00 | 86 | 1012.2 |
| 20260905072037 | 66 | 21 | 2.0 | 6.0 | 0.00 | 0.00 | 0.00 | 86 | 1012.2 |
| 20260905071536 | 66 | 11 | 2.0 | 5.0 | 0.00 | 0.00 | 0.00 | 86 | 1012.2 |
| 20260905070534 | 66 | 356 | 1.0 | 3.0 | 0.00 | 0.00 | 0.00 | 86 | 1012.2 |
| 20260905070037 | 66 | 295 | 0.0 | 0.0 | 0.00 | 0.00 | 0.00 | 86 | 1012.3 |
| 20260905065535 | 66 | 310 | 0.0 | 0.0 | 0.00 | 0.00 | 0.00 | 86 | 1012.3 |
| 20260905064535 | 66 | 268 | 0.0 | 0.0 | 0.00 | 0.00 | 0.00 | 86 | 1012.2 |
| 20260905064037 | 66 | 271 | 0.0 | 0.0 | 0.00 | 0.00 | 0.00 | 86 | 1012.3 |
| 20260905063535 | 66 | 252 | 0.0 | 0.0 | 0.00 | 0.00 | 0.00 | 86 | 1012.3 |
| 20260905062535 | 66 | 266 | 0.0 | 0.0 | 0.00 | 0.00 | 0.00 | 86 | 1012.2 |